TimeHST,TemperatureF,Dew PointF,Humidity,Sea Level PressureIn,VisibilityMPH,Wind Direction,Wind SpeedMPH,Gust SpeedMPH,PrecipitationIn,Events,Conditions,WindDirDegrees,DateUTC
12:01 AM,39.0,30.9,73,29.30,10.0,South,24.2,39.1,N/A,,Mostly Cloudy,170,2013-01-05 10:01:00
1:01 AM,37.4,30.2,75,29.03,10.0,SSE,23.0,42.6,0.00,Rain,Light Rain,160,2013-01-05 11:01:00
1:13 AM,37.9,30.0,73,29.31,10.0,SSE,17.3,42.6,0.00,Rain,Light Rain,150,2013-01-05 11:13:00
1:29 AM,37.4,30.2,75,29.03,8.0,SSE,25.3,39.1,0.00,Rain,Light Rain,150,2013-01-05 11:29:00
1:43 AM,37.4,32.0,81,29.04,5.0,SSE,24.2,34.5,0.01,Rain,Light Rain,150,2013-01-05 11:43:00
2:01 AM,37.0,32.0,82,29.32,8.0,SE,21.9,36.8,0.02,,Overcast,140,2013-01-05 12:01:00
3:01 AM,37.9,28.9,70,29.31,10.0,SSE,19.6,42.6,0.01,,Overcast,160,2013-01-05 13:01:00
5:01 AM,37.9,28.9,70,29.36,10.0,South,16.1,26.5,0.00,Rain,Light Rain,180,2013-01-05 15:01:00
5:41 AM,37.4,26.6,65,29.08,10.0,South,13.8,19.6,0.00,Rain,Light Rain,180,2013-01-05 15:41:00
6:01 AM,37.9,27.0,65,29.38,10.0,South,15.0,21.9,0.00,Rain,Light Rain,180,2013-01-05 16:01:00
7:01 AM,37.9,25.0,60,29.40,10.0,SW,4.6,-,0.00,,Partly Cloudy,220,2013-01-05 17:01:00
8:01 AM,36.0,25.0,64,29.43,10.0,Variable,3.5,-,N/A,,Partly Cloudy,0,2013-01-05 18:01:00
9:01 AM,36.0,24.1,62,29.46,10.0,Variable,4.6,-,N/A,,Mostly Cloudy,0,2013-01-05 19:01:00
10:01 AM,37.0,23.0,57,29.49,10.0,SSE,17.3,27.6,N/A,,Clear,150,2013-01-05 20:01:00
11:01 AM,39.0,21.9,50,29.50,10.0,South,12.7,23.0,N/A,,Clear,170,2013-01-05 21:01:00
12:01 PM,37.9,28.0,68,29.48,10.0,SSE,12.7,17.3,N/A,,Clear,160,2013-01-05 22:01:00
1:01 PM,37.9,28.0,68,29.46,10.0,SE,12.7,-,N/A,,Clear,140,2013-01-05 23:01:00
2:01 PM,37.0,28.0,70,29.47,10.0,South,17.3,26.5,N/A,,Clear,170,2013-01-06 00:01:00
2:27 PM,35.6,28.4,75,29.19,9.0,South,18.4,26.5,0.00,Rain,Light Rain,170,2013-01-06 00:27:00
3:01 PM,37.0,26.1,65,29.47,10.0,ESE,16.1,20.7,0.00,,Partly Cloudy,120,2013-01-06 01:01:00
4:01 PM,36.0,27.0,70,29.46,10.0,South,10.4,-,N/A,,Clear,170,2013-01-06 02:01:00
5:01 PM,35.1,28.0,76,29.44,10.0,SE,11.5,-,N/A,,Clear,140,2013-01-06 03:01:00
6:01 PM,35.1,28.0,76,29.44,10.0,SE,11.5,21.9,N/A,,Partly Cloudy,140,2013-01-06 04:01:00
6:36 PM,35.6,28.4,75,29.14,10.0,South,6.9,-,0.00,Rain,Light Rain,180,2013-01-06 04:36:00
7:01 PM,36.0,28.9,76,29.42,10.0,South,10.4,-,0.00,,Overcast,170,2013-01-06 05:01:00
7:17 PM,35.6,28.4,75,29.14,10.0,SSE,6.9,-,N/A,,Mostly Cloudy,150,2013-01-06 05:17:00
8:01 PM,36.0,30.0,79,29.40,10.0,SSE,8.1,-,N/A,,Partly Cloudy,150,2013-01-06 06:01:00
9:01 PM,36.0,30.9,82,29.39,10.0,South,6.9,-,N/A,,Mostly Cloudy,170,2013-01-06 07:01:00
9:18 PM,35.6,30.2,81,29.09,10.0,SSE,3.5,-,N/A,,Overcast,150,2013-01-06 07:18:00
10:01 PM,36.0,30.9,82,29.35,10.0,Calm,Calm,-,N/A,,Overcast,0,2013-01-06 08:01:00
11:01 PM,37.0,30.9,79,29.32,10.0,NNE,8.1,-,N/A,,Overcast,30,2013-01-06 09:01:00
11:29 PM,37.4,28.4,70,29.03,10.0,NNE,11.5,-,N/A,,Overcast,20,2013-01-06 09:29:00